EWG4PA EBBR-EDDF

Flight info

Callsign EWG4PA
Flight time 0h 54m
Altitude 23000
Route SPI T180 NIVNU T847 IMCOM IMCOM1D
Aircraft A320/M-SDE3FGHIRWY/LB1

Departure

Time 2026-05-07 20:17
Airport Brussels Airport (EBBR)

Arrival

Time 2026-05-07 21:11
Airport Frankfurt Main Airport (EDDF)
Time Latitude Longitude Altitude Speed Heading
2026-05-07 20:01 50.90276 4.48149 121 ft 0 kts 155°
2026-05-07 20:03 50.90291 4.48137 117 ft 4 kts 150°
2026-05-07 20:04 50.90312 4.48113 117 ft 4 kts 117°
2026-05-07 20:04 50.90314 4.48086 117 ft 0 kts 65°
2026-05-07 20:10 50.90315 4.48089 121 ft 2 kts 65°
2026-05-07 20:10 50.90342 4.48133 117 ft 6 kts 33°
2026-05-07 20:11 50.90374 4.48160 119 ft 5 kts 36°
2026-05-07 20:11 50.90390 4.48194 119 ft 4 kts 63°
2026-05-07 20:11 50.90413 4.48272 117 ft 11 kts 65°
2026-05-07 20:11 50.90451 4.48402 121 ft 11 kts 66°
2026-05-07 20:12 50.90480 4.48505 119 ft 9 kts 66°
2026-05-07 20:12 50.90499 4.48568 117 ft 1 kts 59°
2026-05-07 20:12 50.90509 4.48582 119 ft 5 kts 38°
2026-05-07 20:12 50.90539 4.48597 118 ft 8 kts
2026-05-07 20:13 50.90601 4.48651 118 ft 12 kts 57°
2026-05-07 20:13 50.90637 4.48775 120 ft 13 kts 65°
2026-05-07 20:13 50.90680 4.48920 119 ft 16 kts 65°
2026-05-07 20:13 50.90731 4.49093 118 ft 18 kts 65°
2026-05-07 20:14 50.90783 4.49279 121 ft 19 kts 66°
2026-05-07 20:14 50.90832 4.49449 121 ft 13 kts 65°
2026-05-07 20:14 50.90872 4.49587 122 ft 15 kts 65°
2026-05-07 20:14 50.90915 4.49735 121 ft 12 kts 65°
2026-05-07 20:15 50.90951 4.49821 120 ft 10 kts 45°
2026-05-07 20:15 50.91018 4.49897 117 ft 13 kts 27°
2026-05-07 20:15 50.91108 4.49940 118 ft 14 kts 348°
2026-05-07 20:15 50.91125 4.49838 118 ft 2 kts 247°
2026-05-07 20:16 50.91119 4.49815 118 ft 6 kts 247°
2026-05-07 20:16 50.91004 4.49417 118 ft 77 kts 245°
2026-05-07 20:16 50.90690 4.48331 117 ft 137 kts 245°
2026-05-07 20:16 50.90231 4.46752 270 ft 169 kts 245°
2026-05-07 20:17 50.89745 4.45059 961 ft 168 kts 245°
2026-05-07 20:17 50.89261 4.43354 1549 ft 176 kts 245°
2026-05-07 20:17 50.88689 4.41504 1881 ft 198 kts 237°
2026-05-07 20:17 50.87741 4.39773 2181 ft 218 kts 218°
2026-05-07 20:18 50.86381 4.38526 2610 ft 235 kts 198°
2026-05-07 20:18 50.84761 4.38072 3369 ft 239 kts 178°
2026-05-07 20:18 50.83101 4.38512 4005 ft 252 kts 158°
2026-05-07 20:18 50.81587 4.39977 4748 ft 260 kts 136°
2026-05-07 20:19 50.80513 4.42258 5633 ft 263 kts 115°
2026-05-07 20:19 50.80051 4.45078 6488 ft 270 kts 93°
2026-05-07 20:19 50.80243 4.48060 6876 ft 276 kts 80°
2026-05-07 20:19 50.80535 4.51027 7010 ft 276 kts 83°
2026-05-07 20:20 50.80691 4.54067 7333 ft 279 kts 89°
2026-05-07 20:20 50.80689 4.57135 8244 ft 281 kts 93°
2026-05-07 20:20 50.80525 4.60235 9097 ft 285 kts 98°
2026-05-07 20:20 50.80185 4.63347 9935 ft 289 kts 103°
2026-05-07 20:21 50.79674 4.66442 10688 ft 293 kts 108°
2026-05-07 20:21 50.78975 4.69561 11112 ft 312 kts 113°
2026-05-07 20:21 50.78162 4.72829 11329 ft 335 kts 110°
2026-05-07 20:21 50.77433 4.76412 11799 ft 347 kts 110°
2026-05-07 20:22 50.76553 4.79989 12483 ft 352 kts 114°
2026-05-07 20:22 50.75584 4.83562 13207 ft 356 kts 115°
2026-05-07 20:22 50.74550 4.87140 13899 ft 360 kts 116°
2026-05-07 20:22 50.73469 4.90729 14525 ft 364 kts 117°
2026-05-07 20:23 50.72360 4.94350 15145 ft 368 kts 117°
2026-05-07 20:23 50.71238 4.98001 15785 ft 372 kts 117°
2026-05-07 20:23 50.70108 5.01692 16402 ft 375 kts 117°
2026-05-07 20:23 50.68972 5.05414 17023 ft 379 kts 117°
2026-05-07 20:24 50.67823 5.09188 17636 ft 383 kts 117°
2026-05-07 20:24 50.66667 5.12986 18232 ft 387 kts 117°
2026-05-07 20:24 50.65498 5.16822 18764 ft 390 kts 117°
2026-05-07 20:24 50.64317 5.20689 19283 ft 393 kts 117°
2026-05-07 20:25 50.63122 5.24591 19798 ft 396 kts 117°
2026-05-07 20:25 50.61921 5.28512 20308 ft 400 kts 117°
2026-05-07 20:25 50.60707 5.32473 20807 ft 403 kts 117°
2026-05-07 20:25 50.59489 5.36447 21302 ft 406 kts 117°
2026-05-07 20:26 50.58669 5.39111 21632 ft 408 kts 117°
2026-05-07 20:26 50.57427 5.43138 22114 ft 411 kts 117°
2026-05-07 20:26 50.56172 5.47196 22579 ft 414 kts 117°
2026-05-07 20:26 50.54889 5.51337 22989 ft 418 kts 117°
2026-05-07 20:27 50.53628 5.55397 23083 ft 419 kts 117°
2026-05-07 20:27 50.52348 5.59518 23085 ft 419 kts 117°
2026-05-07 20:27 50.51220 5.63743 23090 ft 420 kts 109°
2026-05-07 20:27 50.50398 5.68145 23090 ft 421 kts 107°
2026-05-07 20:28 50.49577 5.72566 23089 ft 421 kts 107°
2026-05-07 20:28 50.48752 5.76972 23086 ft 421 kts 107°
2026-05-07 20:28 50.47924 5.81376 23087 ft 421 kts 107°
2026-05-07 20:28 50.47093 5.85795 23087 ft 421 kts 107°
2026-05-07 20:29 50.46264 5.90193 23087 ft 421 kts 108°
2026-05-07 20:29 50.45431 5.94601 23086 ft 421 kts 108°
2026-05-07 20:29 50.44598 5.99000 23083 ft 421 kts 108°
2026-05-07 20:29 50.43765 6.03404 23076 ft 421 kts 107°
2026-05-07 20:30 50.42932 6.07794 23081 ft 420 kts 107°
2026-05-07 20:30 50.42093 6.12201 23087 ft 420 kts 107°
2026-05-07 20:30 50.41256 6.16587 23088 ft 420 kts 107°
2026-05-07 20:30 50.40419 6.20978 23088 ft 420 kts 107°
2026-05-07 20:31 50.39582 6.25360 23085 ft 420 kts 108°
2026-05-07 20:31 50.38737 6.29740 23085 ft 420 kts 108°
2026-05-07 20:31 50.37889 6.34112 23085 ft 420 kts 108°
2026-05-07 20:31 50.37037 6.38493 23084 ft 420 kts 108°
2026-05-07 20:32 50.36363 6.42865 23082 ft 420 kts 99°
2026-05-07 20:32 50.36061 6.47402 23078 ft 420 kts 95°
2026-05-07 20:32 50.35796 6.51963 23079 ft 420 kts 96°
2026-05-07 20:32 50.35514 6.56512 23080 ft 420 kts 96°
2026-05-07 20:33 50.35221 6.61068 23083 ft 420 kts 96°
2026-05-07 20:33 50.34922 6.65621 23080 ft 420 kts 96°
2026-05-07 20:33 50.34619 6.70168 23080 ft 420 kts 96°
2026-05-07 20:33 50.34317 6.74715 23079 ft 420 kts 96°
2026-05-07 20:34 50.34024 6.79264 23079 ft 420 kts 96°
2026-05-07 20:34 50.33679 6.83799 23076 ft 420 kts 101°
2026-05-07 20:34 50.32934 6.88207 23077 ft 419 kts 109°
2026-05-07 20:34 50.31956 6.92477 22934 ft 413 kts 111°
2026-05-07 20:35 50.30929 6.96607 22609 ft 403 kts 113°
2026-05-07 20:35 50.29876 7.00639 22121 ft 398 kts 114°
2026-05-07 20:35 50.28821 7.04615 21660 ft 393 kts 114°
2026-05-07 20:35 50.27784 7.08543 21199 ft 389 kts 113°
2026-05-07 20:36 50.26769 7.12431 20724 ft 385 kts 113°
2026-05-07 20:36 50.25770 7.16303 20258 ft 383 kts 112°
2026-05-07 20:36 50.24786 7.20153 19780 ft 380 kts 112°
2026-05-07 20:36 50.23813 7.23979 19302 ft 378 kts 112°
2026-05-07 20:37 50.22842 7.27792 18810 ft 377 kts 112°
2026-05-07 20:37 50.21870 7.31587 18305 ft 376 kts 112°
2026-05-07 20:37 50.20900 7.35364 17782 ft 374 kts 112°
2026-05-07 20:37 50.19933 7.39115 17282 ft 371 kts 112°
2026-05-07 20:38 50.18972 7.42840 16809 ft 369 kts 112°
2026-05-07 20:38 50.18013 7.46548 16329 ft 367 kts 113°
2026-05-07 20:38 50.17057 7.50232 15849 ft 365 kts 113°
2026-05-07 20:38 50.16103 7.53897 15372 ft 364 kts 113°
2026-05-07 20:39 50.15156 7.57534 14908 ft 362 kts 113°
2026-05-07 20:39 50.14210 7.61161 14424 ft 361 kts 113°
2026-05-07 20:39 50.13264 7.64775 13960 ft 359 kts 113°
2026-05-07 20:39 50.12322 7.68368 13439 ft 358 kts 113°
2026-05-07 20:40 50.11395 7.71902 12963 ft 355 kts 113°
2026-05-07 20:40 50.10467 7.75449 12473 ft 353 kts 113°
2026-05-07 20:40 50.09543 7.78971 11990 ft 350 kts 113°
2026-05-07 20:40 50.08594 7.82425 11710 ft 341 kts 120°
2026-05-07 20:41 50.07053 7.85075 11560 ft 326 kts 147°
2026-05-07 20:41 50.04995 7.86467 11003 ft 326 kts 171°
2026-05-07 20:41 50.02744 7.86496 10496 ft 324 kts 192°
2026-05-07 20:41 50.00661 7.85284 10161 ft 317 kts 208°
2026-05-07 20:42 49.98746 7.83729 10047 ft 305 kts 209°
2026-05-07 20:42 49.97038 7.81895 9914 ft 293 kts 223°
2026-05-07 20:42 49.95730 7.79556 9688 ft 284 kts 239°
2026-05-07 20:42 49.94962 7.76765 9333 ft 280 kts 252°
2026-05-07 20:43 49.94290 7.73936 8952 ft 279 kts 240°
2026-05-07 20:43 49.93025 7.71700 8569 ft 278 kts 217°
2026-05-07 20:43 49.91282 7.70436 8189 ft 278 kts 193°
2026-05-07 20:43 49.89361 7.70378 7804 ft 278 kts 169°
2026-05-07 20:44 49.87591 7.71546 7419 ft 278 kts 144°
2026-05-07 20:44 49.86280 7.73715 7033 ft 277 kts 120°
2026-05-07 20:44 49.85640 7.76503 6641 ft 276 kts 96°
2026-05-07 20:44 49.85772 7.79435 6232 ft 273 kts 72°
2026-05-07 20:45 49.86601 7.82034 5948 ft 266 kts 57°
2026-05-07 20:45 49.87440 7.84510 5802 ft 254 kts 65°
2026-05-07 20:45 49.88085 7.87000 5683 ft 243 kts 68°
2026-05-07 20:45 49.88659 7.89403 5544 ft 233 kts 69°
2026-05-07 20:46 49.89221 7.91740 5295 ft 229 kts 69°
2026-05-07 20:46 49.89833 7.93993 5110 ft 225 kts 57°
2026-05-07 20:46 49.90683 7.96032 5080 ft 226 kts 64°
2026-05-07 20:46 49.91218 7.98328 5084 ft 227 kts 73°
2026-05-07 20:47 49.91602 8.00714 4907 ft 231 kts 76°
2026-05-07 20:47 49.91954 8.03108 4778 ft 223 kts 76°
2026-05-07 20:47 49.92300 8.05390 4721 ft 212 kts 75°
2026-05-07 20:47 49.92647 8.07558 4673 ft 204 kts 75°
2026-05-07 20:48 49.93001 8.09672 4624 ft 202 kts 74°
2026-05-07 20:48 49.93363 8.11766 4577 ft 197 kts 73°
2026-05-07 20:48 49.93716 8.13768 4528 ft 187 kts 73°
2026-05-07 20:48 49.94119 8.15664 4486 ft 187 kts 69°
2026-05-07 20:49 49.94578 8.17576 4447 ft 189 kts 68°
2026-05-07 20:49 49.95047 8.19483 4436 ft 187 kts 68°
2026-05-07 20:49 49.95497 8.21327 4395 ft 187 kts 68°
2026-05-07 20:49 49.95967 8.23255 4333 ft 189 kts 68°
2026-05-07 20:50 49.96433 8.25172 4158 ft 189 kts 68°
2026-05-07 20:50 49.96896 8.27079 3921 ft 188 kts 68°
2026-05-07 20:50 49.97245 8.29032 3760 ft 188 kts 78°
2026-05-07 20:50 49.97436 8.30977 3561 ft 182 kts 78°
2026-05-07 20:51 49.97784 8.32845 3273 ft 180 kts 67°
2026-05-07 20:51 49.98254 8.34635 2971 ft 176 kts 67°
2026-05-07 20:51 49.98688 8.36382 2644 ft 171 kts 69°
2026-05-07 20:51 49.99092 8.38106 2366 ft 164 kts 69°
2026-05-07 20:52 49.99464 8.39722 2139 ft 157 kts 70°
2026-05-07 20:52 49.99830 8.41248 1999 ft 147 kts 69°
2026-05-07 20:52 50.00184 8.42714 1811 ft 143 kts 69°
2026-05-07 20:52 50.00529 8.44141 1642 ft 137 kts 69°
2026-05-07 20:53 50.00864 8.45521 1509 ft 136 kts 69°
2026-05-07 20:53 50.01177 8.46901 1305 ft 135 kts 71°
2026-05-07 20:53 50.01500 8.48278 1099 ft 135 kts 68°
2026-05-07 20:53 50.01850 8.49637 925 ft 136 kts 69°
2026-05-07 20:54 50.02183 8.50998 683 ft 135 kts 68°
2026-05-07 20:54 50.02504 8.52359 584 ft 134 kts 70°
2026-05-07 20:54 50.02865 8.53937 737 ft 177 kts 70°
2026-05-07 20:54 50.03313 8.55915 1165 ft 206 kts 70°
2026-05-07 20:55 50.03813 8.58187 1654 ft 234 kts 71°
2026-05-07 20:55 50.04292 8.60490 1906 ft 216 kts 72°
2026-05-07 20:55 50.04649 8.62744 2644 ft 214 kts 74°
2026-05-07 20:55 50.05127 8.64906 3534 ft 216 kts 70°
2026-05-07 20:56 50.05419 8.67226 4339 ft 222 kts 83°
2026-05-07 20:56 50.05532 8.69668 4866 ft 229 kts 86°
2026-05-07 20:56 50.05326 8.72119 5007 ft 231 kts 111°
2026-05-07 20:56 50.04427 8.74158 5028 ft 231 kts 140°
2026-05-07 20:57 50.03005 8.75270 5032 ft 231 kts 170°
2026-05-07 20:57 50.01433 8.75181 5038 ft 229 kts 199°
2026-05-07 20:57 50.00039 8.74071 5038 ft 229 kts 213°
2026-05-07 20:57 49.98665 8.72753 5035 ft 229 kts 213°
2026-05-07 20:58 49.97323 8.71469 5033 ft 229 kts 213°
2026-05-07 20:58 49.95946 8.70158 5038 ft 229 kts 212°
2026-05-07 20:58 49.94603 8.68882 5041 ft 229 kts 212°
2026-05-07 20:58 49.93242 8.67592 5037 ft 229 kts 213°
2026-05-07 20:59 49.92037 8.66008 5017 ft 228 kts 230°
2026-05-07 20:59 49.91115 8.64021 5014 ft 227 kts 240°
2026-05-07 20:59 49.90369 8.61869 5012 ft 226 kts 249°
2026-05-07 20:59 49.89839 8.59580 5015 ft 226 kts 253°
2026-05-07 21:00 49.89360 8.57256 5017 ft 226 kts 253°
2026-05-07 21:00 49.88888 8.54929 5016 ft 226 kts 254°
2026-05-07 21:00 49.88417 8.52604 5012 ft 226 kts 254°
2026-05-07 21:00 49.87938 8.50229 5027 ft 249 kts 253°
2026-05-07 21:01 49.87397 8.47512 5020 ft 264 kts 253°
2026-05-07 21:01 49.86853 8.44772 5014 ft 267 kts 254°
2026-05-07 21:01 49.86307 8.42016 5013 ft 267 kts 254°
2026-05-07 21:01 49.85830 8.39241 5015 ft 267 kts 265°
2026-05-07 21:02 49.85805 8.36374 5015 ft 266 kts 273°
2026-05-07 21:02 49.85887 8.33510 5013 ft 266 kts 274°
2026-05-07 21:02 49.85979 8.30645 5017 ft 266 kts 274°
2026-05-07 21:02 49.86073 8.27783 5011 ft 266 kts 274°
2026-05-07 21:03 49.86166 8.24925 5017 ft 266 kts 274°
2026-05-07 21:03 49.86260 8.22065 5010 ft 266 kts 274°
2026-05-07 21:03 49.86353 8.19236 5018 ft 266 kts 274°
2026-05-07 21:03 49.86682 8.16456 5005 ft 265 kts 295°
2026-05-07 21:04 49.87802 8.14175 5028 ft 264 kts 320°
2026-05-07 21:04 49.89352 8.12701 5012 ft 263 kts 343°
2026-05-07 21:04 49.91148 8.12540 5021 ft 256 kts 13°
2026-05-07 21:04 49.92776 8.13366 5010 ft 238 kts 19°
2026-05-07 21:05 49.94266 8.14273 5014 ft 226 kts 30°
2026-05-07 21:05 49.95403 8.15862 5022 ft 222 kts 55°
2026-05-07 21:05 49.96052 8.17978 4882 ft 216 kts 69°
2026-05-07 21:05 49.96575 8.20159 4600 ft 216 kts 69°
2026-05-07 21:06 49.97106 8.22368 4282 ft 212 kts 69°
2026-05-07 21:06 49.97611 8.24453 3980 ft 204 kts 68°
2026-05-07 21:06 49.98103 8.26482 3690 ft 198 kts 69°
2026-05-07 21:06 49.98586 8.28475 3421 ft 196 kts 69°
2026-05-07 21:07 49.99061 8.30437 3128 ft 193 kts 69°
2026-05-07 21:07 49.99520 8.32332 2873 ft 181 kts 69°
2026-05-07 21:07 49.99950 8.34112 2602 ft 171 kts 69°
2026-05-07 21:07 50.00359 8.35805 2360 ft 163 kts 69°
2026-05-07 21:08 50.00741 8.37385 2148 ft 149 kts 69°
2026-05-07 21:08 50.01091 8.38838 1912 ft 139 kts 69°
2026-05-07 21:08 50.01426 8.40226 1719 ft 135 kts 69°
2026-05-07 21:08 50.01753 8.41584 1519 ft 134 kts 69°
2026-05-07 21:09 50.02080 8.42943 1321 ft 134 kts 69°
2026-05-07 21:09 50.02408 8.44304 1134 ft 135 kts 69°
2026-05-07 21:09 50.02737 8.45673 946 ft 135 kts 68°
2026-05-07 21:09 50.03065 8.47040 747 ft 135 kts 68°
2026-05-07 21:10 50.03390 8.48409 533 ft 135 kts 68°
2026-05-07 21:10 50.03710 8.49770 369 ft 134 kts 68°
2026-05-07 21:10 50.04029 8.51066 327 ft 116 kts 69°
2026-05-07 21:10 50.04274 8.52087 335 ft 81 kts 70°
2026-05-07 21:11 50.04377 8.52517 352 ft 46 kts 69°
2026-05-07 21:11 50.04386 8.52831 349 ft 15 kts 97°
2026-05-07 21:11 50.04364 8.53082 355 ft 8 kts 98°
2026-05-07 21:12 50.04354 8.53168 362 ft 10 kts 100°
2026-05-07 21:12 50.04352 8.53297 365 ft 14 kts 79°
2026-05-07 21:12 50.04381 8.53438 373 ft 15 kts 71°
2026-05-07 21:12 50.04402 8.53612 375 ft 16 kts 85°
2026-05-07 21:13 50.04414 8.53817 375 ft 14 kts 83°
2026-05-07 21:13 50.04429 8.54015 375 ft 23 kts 83°
2026-05-07 21:13 50.04441 8.54224 375 ft 23 kts 85°
2026-05-07 21:13 50.04453 8.54447 370 ft 19 kts 91°
2026-05-07 21:14 50.04399 8.54662 364 ft 24 kts 126°
2026-05-07 21:14 50.04283 8.54790 362 ft 16 kts 160°
2026-05-07 21:14 50.04160 8.54857 359 ft 24 kts 159°
2026-05-07 21:14 50.04083 8.54902 353 ft 14 kts 160°
2026-05-07 21:15 50.03973 8.54965 357 ft 17 kts 159°
2026-05-07 21:15 50.03861 8.55043 359 ft 16 kts 136°
2026-05-07 21:15 50.03874 8.55219 357 ft 18 kts 69°
2026-05-07 21:15 50.03912 8.55380 358 ft 16 kts 70°
2026-05-07 21:16 50.03953 8.55553 357 ft 18 kts 69°
2026-05-07 21:16 50.03998 8.55747 356 ft 20 kts 70°
2026-05-07 21:16 50.04048 8.55954 355 ft 21 kts 70°
2026-05-07 21:16 50.04101 8.56171 358 ft 22 kts 69°
2026-05-07 21:17 50.04156 8.56400 360 ft 23 kts 70°
2026-05-07 21:17 50.04205 8.56607 358 ft 20 kts 70°
2026-05-07 21:17 50.04253 8.56810 361 ft 20 kts 69°
2026-05-07 21:17 50.04304 8.57019 362 ft 22 kts 69°
2026-05-07 21:18 50.04358 8.57233 363 ft 21 kts 70°
2026-05-07 21:18 50.04401 8.57428 365 ft 18 kts 70°
2026-05-07 21:18 50.04443 8.57608 370 ft 17 kts 69°
2026-05-07 21:18 50.04484 8.57778 366 ft 17 kts 70°
2026-05-07 21:19 50.04523 8.57939 365 ft 13 kts 69°
2026-05-07 21:19 50.04585 8.58029 363 ft 15 kts 356°
2026-05-07 21:19 50.04688 8.57971 360 ft 15 kts 340°
2026-05-07 21:19 50.04791 8.57911 363 ft 16 kts 339°
2026-05-07 21:20 50.04861 8.57787 361 ft 16 kts 293°
2026-05-07 21:20 50.04906 8.57627 360 ft 17 kts 295°
2026-05-07 21:20 50.04944 8.57501 358 ft 10 kts 295°
2026-05-07 21:20 50.04976 8.57416 363 ft 7 kts 316°
2026-05-07 21:21 50.04998 8.57403 359 ft 1 kts
2026-05-07 21:21 50.05000 8.57408 358 ft 1 kts 31°
2026-05-07 21:21 50.05003 8.57427 356 ft 3 kts 69°
2026-05-07 21:21 50.05005 8.57432 356 ft 0 kts 70°